[[{"header":{"parameterUnit":"m.s-1","parameterCategory":2,"la1":30.2991,"la2":30.254,"lo1":-89.0895,"lo2":-89.0444,"dy":0.0017,"dx":0.0017,"nx":28,"ny":28,"refTime":"2023-08-12T09:00:00:Z","depth":"0","parameterNumber":2,"parameterNumberName":"U-component_of_CURRENTS"},"data":[0,0,0,0,0,0,0,0,0,0,0,0,0,0,0,0,0,0,0,0,0,0,0,0,0,0,0,0,0,0,0,0,0,0,0,0,0,0,0,0,0,0,0,0,0,0,0,0,0,0,0,0,0,0,0,0,0,0,-0.0005,-0.0005,0,0.002,0.002,0.0021,-0.0025,-0.0027,-0.0028,-0.003,-0.0049,-0.0048,-0.0047,0,0,0,0,0,0,0,0,0,0,0,0,0,-0.0033,-0.0033,-0.0005,-0.0005,-0.0004,0.002,0.002,0.0021,-0.0025,-0.0027,-0.0029,-0.003,-0.0049,-0.0048,-0.0047,0,0,0,0,0,0,0,0,0,0,0,0,0,-0.0017,-0.0033,-0.0005,-0.0024,-0.0025,0.002,0.002,0.0021,-0.0025,-0.0027,-0.0029,-0.0031,-0.005,-0.0048,-0.0047,0.0005,0,0,-0.0043,-0.0043,0,0,0,0,0,0,0,0,-0.0018,-0.0016,-0.0021,-0.0022,-0.0024,-0.0007,0.0003,0.0013,-0.0024,-0.0025,-0.003,-0.0032,-0.0037,-0.0037,-0.0028,0.0004,0.0003,-0.0043,-0.0042,-0.0042,-0.0041,0,0,0,0,0,0,0,-0.0019,-0.0017,0.0004,-0.0021,-0.0022,-0.0013,-0.0014,0.0005,-0.0021,-0.0025,-0.0029,-0.0024,-0.0039,-0.0029,-0.0029,0.0003,-0.0043,-0.0042,-0.0041,-0.0041,-0.0083,-0.0085,0,0,0,0,0,0,-0.0021,-0.0018,0.0003,0.0005,-0.0025,-0.0011,-0.0012,-0.0011,-0.002,-0.0023,-0.0022,-0.0026,-0.003,-0.003,-0.003,-0.0039,-0.0042,-0.0041,-0.004,-0.0081,-0.0083,-0.0085,0,0,0,0,0,0,-0.0022,-0.0019,0.0002,-0.0005,-0.0002,-0.0008,-0.0007,-0.0009,0.0003,-0.0017,-0.0021,-0.0008,-0.0032,-0.0031,-0.0046,-0.0037,-0.004,-0.0039,-0.0079,-0.0082,-0.0084,-0.0012,0,0,0,0,0,0,-0.0023,-0.002,-0.0002,-0.0005,-0.0001,0.0001,-0.0005,-0.0007,0.0009,0.0004,-0.0005,-0.001,-0.0033,-0.0048,-0.0045,-0.0036,-0.0038,-0.0076,-0.008,-0.0083,-0.0012,-0.0012,-0.0012,0,0,0,0,0,-0.0024,-0.0002,-0.0001,0.0002,0.0017,0.0001,0.0003,-0.0009,0.0012,-0.0,-0.0011,-0.001,-0.007,-0.0047,-0.0043,-0.0034,-0.0075,-0.0079,-0.0083,-0.0012,-0.0012,-0.0012,0,0,0,0,0,0,0.0002,-0.0004,-0.0004,0.0018,-0.0001,-0.0008,0.001,0.0009,0.0001,0.0013,-0.0008,-0.0015,-0.0027,-0.005,-0.0025,-0.0069,-0.0081,-0.0084,-0.0028,-0.0028,-0.0028,0.001,-0.0037,0,0,0,0,0,0.0018,0.0038,0.0012,0.0039,0.0031,0.0031,0.0038,0.0026,0.0016,0.0013,-0.0014,-0.0033,-0.0037,-0.0049,-0.0069,-0.0068,-0.004,-0.0076,-0.0076,-0.0075,-0.0049,-0.0091,-0.0091,-0.0099,-0.0099,-0.0099,0,0,0.0039,0.0046,0.0056,0.0047,0.005,0.0036,0.0029,0.0039,0.0034,0.0016,-0.0002,-0.0019,-0.0038,-0.0058,-0.0067,-0.0076,-0.0034,-0.008,-0.0078,-0.0052,-0.0095,-0.0094,-0.0092,-0.0102,-0.0102,-0.0101,0,0,0.0081,0.0093,0.0108,0.0082,0.0078,0.0073,0.0075,0.0048,0.0039,0.0035,0.0009,-0.0012,-0.0025,-0.006,-0.0062,-0.0072,-0.0028,-0.0087,-0.0049,-0.0091,-0.0089,-0.0087,0.0073,0.0088,-0.0094,-0.0094,-0.0094,0,0.0105,0.0132,0.0109,0.0097,0.0108,0.0087,0.0097,0.0076,0.004,0.003,0.0027,0.0001,-0.0021,-0.0026,-0.0038,-0.0063,-0.0017,-0.0033,-0.0084,-0.0083,-0.0083,0.008,0.0096,-0.0091,-0.0091,-0.0092,-0.0092,0,0.012,0.0152,0.0162,0.0149,0.0137,0.0156,0.011,0.0068,0.008,0.0065,0.0056,0.0031,0.0007,-0.0007,-0.0004,-0.0021,0.0045,-0.0067,-0.0066,-0.0076,0.0096,0.0112,-0.0087,-0.0088,-0.0089,-0.009,0,0,0.0171,0.0178,0.0189,0.0196,0.0184,0.0168,0.0142,0.0117,0.0114,0.0074,0.0089,0.0071,0.0062,0.0055,0.0034,0.0013,0.01,-0.0009,-0.0013,0.0191,0.017,0.0324,0.0357,-0.0032,-0.0033,-0.0033,0.0337,0,0.0214,0.0204,0.0232,0.0256,0.0236,0.0216,0.0201,0.0156,0.0148,0.0122,0.0105,0.0125,0.0086,0.011,0.0071,0.0084,0.0123,0.0022,0.0115,0.0123,0.0287,0.0369,0.0439,0.0778,0.0352,0.0354,0.0356,0,0.0206,0.0218,0.0232,0.0282,0.0286,0.0296,0.027,0.0269,0.021,0.0209,0.0193,0.0192,0.0211,0.0151,0.0207,0.0148,0.018,0.0194,0.0204,0.0327,0.0299,0.0687,0.0822,0.0778,0.038,0.0378,0.0376,0,0.0163,0.023,0.026,0.0257,0.0279,0.0294,0.0322,0.027,0.0288,0.0273,0.0315,0.0293,0.0357,0.0317,0.0383,0.0288,0.0481,0.0326,0.0529,0.0549,0.062,0.0643,0.0745,0.0357,0.0356,0.0355,0.0354,0,0.0174,0.023,0.0236,0.0228,0.0269,0.0296,0.0337,0.032,0.0358,0.0408,0.0384,0.0459,0.0386,0.0479,0.0463,0.0631,0.0548,0.0615,0.0631,0.0661,0.0682,0.065,0.0474,0.0369,0.0366,0.0364,0.0361,0,0.0194,0.0181,0.0211,0.0236,0.0226,0.0262,0.0344,0.0379,0.0433,0.0504,0.0532,0.062,0.0774,0.0794,0.083,0.0817,0.0859,0.0956,0.1122,0.1149,0.1236,0.106,0.1022,0.1002,0.1245,0.1251,0.1255,0,0.0206,0.019,0.0177,0.0183,0.0237,0.0271,0.0284,0.0345,0.0416,0.0613,0.0678,0.0883,0.1004,0.1243,0.1269,0.1392,0.1142,0.1515,0.1281,0.1333,0.1144,0.0891,0.0854,0.1479,0.1485,0.149,0.1494,0,0.0252,0.0244,0.0287,0.0239,0.0254,0.0302,0.0365,0.0403,0.053,0.0628,0.0848,0.0991,0.1298,0.1476,0.1688,0.1713,0.1394,0.1625,0.1555,0.1268,0.111,0.1072,0.1281,0.1539,0.1535,0.1531,0.1529,0.1527,0.0302,0.0345,0.032,0.034,0.0344,0.0386,0.0426,0.0522,0.0624,0.0816,0.0943,0.1163,0.1498,0.1811,0.1868,0.2017,0.1731,0.1934,0.1727,0.1482,0.1383,0.1814,0.2115,0.2114,0.2113,0.2112,0.2111,0,0.0319,0.0369,0.0403,0.0407,0.046,0.0434,0.0515,0.0577,0.0688,0.0842,0.1012,0.1347,0.1696,0.1924,0.2221,0.215,0.1918,0.2024,0.164,0.1604,0.1952,0.1886,0.2296,0.2296,0.2296,0.2296,0.2296,0.2296,0.0328,0.038,0.0419,0.0485,0.051,0.058,0.0624,0.0692,0.0791,0.0959,0.1093,0.122,0.1577,0.1989,0.2176,0.2106,0.1749,0.1623,0.1487,0.1694,0.1667,0.1641,0.1548,0.188,0.1878,0.1197,0.119,0.1185]},{"header":{"parameterUnit":"m.s-1","parameterCategory":2,"la1":30.2991,"la2":30.254,"lo1":-89.0895,"lo2":-89.0444,"dy":0.0017,"dx":0.0017,"nx":28,"ny":28,"refTime":"2023-08-12T09:00:00:Z","depth":"0","parameterNumber":3,"parameterNumberName":"V-component_of_CURRENTS"},"data":[0,0,0,0,0,0,0,0,0,0,0,0,0,0,0,0,0,0,0,0,0,0,0,0,0,0,0,0,0,0,0,0,0,0,0,0,0,0,0,0,0,0,0,0,0,0,0,0,0,0,0,0,0,0,0,0,0,0,0.0405,0.0405,0,0.0397,0.0396,0.0396,0.041,0.041,0.0411,0.0411,0.043,0.043,0.0431,0,0,0,0,0,0,0,0,0,0,0,0,0,0.0437,0.0437,0.0405,0.0405,0.0405,0.0397,0.0396,0.0396,0.041,0.041,0.0411,0.0411,0.043,0.043,0.0431,0,0,0,0,0,0,0,0,0,0,0,0,0,0.0427,0.0437,0.0405,0.041,0.041,0.0397,0.0396,0.0396,0.041,0.041,0.0411,0.0411,0.043,0.043,0.0431,0.0422,0,0,0.0431,0.0432,0,0,0,0,0,0,0,0,0.0427,0.0426,0.0409,0.0409,0.041,0.0404,0.0415,0.0406,0.041,0.0411,0.0411,0.0412,0.0423,0.0424,0.0422,0.0422,0.0423,0.0431,0.0432,0.0432,0.0432,0,0,0,0,0,0,0,0.0428,0.0426,0.0403,0.0409,0.0409,0.0413,0.0412,0.0413,0.0416,0.0411,0.0412,0.0409,0.0423,0.0422,0.0423,0.0424,0.0431,0.0432,0.0432,0.0432,0.0402,0.0401,0,0,0,0,0,0,0.0426,0.0427,0.0403,0.0403,0.0419,0.0412,0.0411,0.0406,0.0415,0.0416,0.0408,0.0409,0.0421,0.0422,0.0424,0.0399,0.0432,0.0432,0.0432,0.0403,0.0402,0.04,0,0,0,0,0,0,0.0426,0.0424,0.0404,0.0414,0.0411,0.0411,0.0405,0.0406,0.0394,0.0412,0.0414,0.0395,0.0422,0.0423,0.0415,0.0401,0.0432,0.0432,0.0404,0.0402,0.0401,0.036,0,0,0,0,0,0,0.0427,0.0424,0.0423,0.0413,0.0411,0.0369,0.0404,0.0405,0.0392,0.0393,0.0402,0.0405,0.0422,0.0415,0.0416,0.0402,0.0433,0.0405,0.0403,0.0401,0.0363,0.0358,0.0353,0,0,0,0,0,0.0428,0.041,0.0422,0.042,0.0408,0.0367,0.0364,0.0368,0.039,0.0365,0.0387,0.0404,0.0404,0.0414,0.0415,0.0401,0.0406,0.0404,0.0402,0.0365,0.0359,0.0353,0,0,0,0,0,0,0.042,0.0409,0.0423,0.0403,0.0379,0.0368,0.0359,0.0358,0.0355,0.0361,0.0391,0.0394,0.0381,0.0393,0.0404,0.0386,0.0407,0.0405,0.0379,0.0373,0.0369,0.0351,0.0433,0,0,0,0,0,0.042,0.0401,0.039,0.0369,0.0369,0.0365,0.0354,0.034,0.0336,0.0336,0.0355,0.037,0.0374,0.0375,0.0377,0.0367,0.0394,0.0358,0.0353,0.0349,0.0335,0.0343,0.0337,0.0393,0.0393,0.0393,0,0,0.0409,0.0401,0.0391,0.0366,0.0365,0.0358,0.0359,0.0321,0.0305,0.0338,0.0341,0.035,0.0365,0.0356,0.0351,0.0364,0.0358,0.0346,0.0343,0.033,0.034,0.0334,0.033,0.0392,0.0392,0.0392,0,0,0.0363,0.0378,0.0348,0.0341,0.0317,0.0325,0.0311,0.0296,0.0281,0.0262,0.0295,0.0295,0.03,0.0315,0.0322,0.0289,0.0329,0.0287,0.0252,0.026,0.0256,0.0252,0.0327,0.0331,0.0288,0.0288,0.0288,0,0.0366,0.0325,0.0327,0.031,0.0312,0.0316,0.0294,0.0282,0.026,0.0248,0.0252,0.0269,0.0281,0.0283,0.0268,0.0278,0.0306,0.0276,0.0254,0.0251,0.0248,0.0325,0.0329,0.0286,0.0286,0.0286,0.0286,0,0.0303,0.0285,0.0271,0.0273,0.0269,0.024,0.0242,0.0229,0.0227,0.0218,0.0194,0.0206,0.0226,0.022,0.0229,0.0215,0.0254,0.0246,0.0271,0.024,0.0324,0.0329,0.0283,0.0283,0.0284,0.0285,0,0,0.0297,0.0238,0.0241,0.0228,0.0244,0.0228,0.0223,0.0204,0.0211,0.0174,0.0177,0.0153,0.0167,0.0174,0.0192,0.0178,0.0197,0.0191,0.0193,0.027,0.0259,0.0217,0.022,0.0177,0.0176,0.0176,0.0345,0,0.0259,0.0206,0.019,0.0168,0.0161,0.0177,0.0182,0.0168,0.0173,0.0187,0.016,0.0178,0.0151,0.0171,0.0148,0.0165,0.0199,0.0155,0.0273,0.0278,0.0245,0.0218,0.0272,0.0418,0.0351,0.0351,0.0352,0,0.0215,0.0194,0.0151,0.0121,0.0123,0.0124,0.0157,0.0132,0.0155,0.0163,0.0166,0.0184,0.0168,0.0163,0.0169,0.0136,0.0202,0.0218,0.0226,0.0194,0.0241,0.0428,0.043,0.0486,0.036,0.036,0.0359,0,0.0215,0.0162,0.0125,0.0126,0.0116,0.0103,0.0096,0.0126,0.0118,0.016,0.0204,0.0184,0.0203,0.0203,0.0215,0.0206,0.0235,0.0252,0.0302,0.0305,0.0375,0.0381,0.044,0.0309,0.0308,0.0308,0.0307,0,0.0183,0.0148,0.0121,0.0116,0.0098,0.0085,0.0083,0.0091,0.0124,0.0157,0.0188,0.0242,0.0202,0.022,0.0234,0.025,0.0267,0.0289,0.032,0.0366,0.0369,0.0438,0.0447,0.0314,0.0313,0.0312,0.0311,0,0.0148,0.0128,0.01,0.0095,0.0089,0.0074,0.0066,0.008,0.0119,0.0178,0.02,0.0267,0.0285,0.0269,0.0298,0.0293,0.0355,0.0353,0.0426,0.0457,0.0508,0.0512,0.0557,0.0637,0.0436,0.0435,0.0435,0,0.0112,0.0093,0.0099,0.0104,0.009,0.0071,0.0078,0.0083,0.0125,0.0209,0.0259,0.0302,0.0383,0.0382,0.0339,0.0365,0.0417,0.0464,0.0431,0.0498,0.053,0.0511,0.0577,0.0567,0.0567,0.0568,0.0568,0,0.0085,0.0093,0.0088,0.0093,0.0101,0.0096,0.0108,0.0153,0.0192,0.027,0.0376,0.0434,0.0452,0.0469,0.0455,0.0469,0.0491,0.0475,0.0531,0.0598,0.0601,0.0699,0.0515,0.0574,0.0573,0.0573,0.0572,0.0572,0.0085,0.0089,0.0103,0.0083,0.0099,0.0135,0.0167,0.0221,0.0291,0.0437,0.0471,0.0608,0.0643,0.0609,0.056,0.0563,0.0554,0.0633,0.0638,0.0616,0.0645,0.0465,0.0534,0.0534,0.0533,0.0533,0.0532,0,0.0103,0.0088,0.0088,0.0109,0.0122,0.0119,0.0203,0.0271,0.0392,0.0525,0.0633,0.0828,0.084,0.0812,0.0778,0.0767,0.0771,0.0781,0.0815,0.0882,0.0739,0.0691,0.0812,0.0812,0.0812,0.0812,0.0812,0.0812,0.0123,0.0116,0.0102,0.0122,0.0134,0.0197,0.0259,0.0375,0.0495,0.073,0.0901,0.1027,0.1151,0.0984,0.0956,0.0935,0.1022,0.0942,0.099,0.0926,0.0914,0.0903,0.0861,0.1015,0.1015,0.1185,0.1187,0.1188]}],[{"header":{"parameterUnit":"m.s-1","parameterCategory":2,"la1":30.2991,"la2":30.254,"lo1":-89.0895,"lo2":-89.0444,"dy":0.0017,"dx":0.0017,"nx":28,"ny":28,"refTime":"2023-08-12T09:00:00:Z","depth":"2","parameterNumber":2,"parameterNumberName":"U-component_of_CURRENTS"},"data":[0,0,0,0,0,0,0,0,0,0,0,0,0,0,0,0,0,0,0,0,0,0,0,0,0,0,0,0,0,0,0,0,0,0,0,0,0,0,0,0,0,0,0,0,0,0,0,0,0,0,0,0,0,0,0,0,0,0,-0.2542,-0.2543,0,-0.2553,-0.2552,-0.2551,-0.2507,-0.2506,-0.2506,-0.2506,-0.252,-0.2521,-0.2521,0,0,0,0,0,0,0,0,0,0,0,0,0,-0.2322,-0.2326,-0.2542,-0.2543,-0.2545,-0.2553,-0.2552,-0.2551,-0.2507,-0.2506,-0.2506,-0.2506,-0.252,-0.2521,-0.2521,0,0,0,0,0,0,0,0,0,0,0,0,0,-0.2373,-0.2328,-0.2542,-0.2532,-0.2532,-0.2553,-0.2552,-0.255,-0.2507,-0.2506,-0.2506,-0.2506,-0.252,-0.2521,-0.2521,-0.2535,0,0,-0.2524,-0.2525,0,0,0,0,0,0,0,0,-0.237,-0.238,-0.2532,-0.2533,-0.2533,-0.2538,-0.248,-0.255,-0.2507,-0.2504,-0.2506,-0.2505,-0.2534,-0.2534,-0.252,-0.2536,-0.2537,-0.2524,-0.2525,-0.2525,-0.2526,0,0,0,0,0,0,0,-0.2367,-0.2378,-0.2535,-0.2534,-0.2534,-0.2472,-0.2479,-0.2491,-0.2513,-0.2505,-0.2504,-0.2523,-0.2533,-0.252,-0.2521,-0.2537,-0.2524,-0.2525,-0.2526,-0.2526,-0.2454,-0.2452,0,0,0,0,0,0,-0.2399,-0.2377,-0.2535,-0.2536,-0.2462,-0.2478,-0.2485,-0.2527,-0.2513,-0.2513,-0.2524,-0.2522,-0.2518,-0.252,-0.2521,-0.2495,-0.2525,-0.2526,-0.2527,-0.2457,-0.2454,-0.2451,0,0,0,0,0,0,-0.2394,-0.2413,-0.2535,-0.2463,-0.2476,-0.2484,-0.2531,-0.2528,-0.2513,-0.2529,-0.2527,-0.2513,-0.2518,-0.252,-0.2545,-0.2497,-0.2527,-0.2528,-0.246,-0.2456,-0.2452,-0.247,0,0,0,0,0,0,-0.2388,-0.2412,-0.2423,-0.2467,-0.2482,-0.2558,-0.2532,-0.2529,-0.2531,-0.2528,-0.252,-0.252,-0.2518,-0.2544,-0.2546,-0.2499,-0.2528,-0.2463,-0.2458,-0.2453,-0.2473,-0.2468,-0.2463,0,0,0,0,0,-0.238,-0.2441,-0.2425,-0.2442,-0.2509,-0.256,-0.256,-0.2554,-0.2531,-0.2534,-0.2533,-0.252,-0.2512,-0.2546,-0.2548,-0.25,-0.2465,-0.2459,-0.2454,-0.2475,-0.2469,-0.2463,0,0,0,0,0,0,-0.2359,-0.2444,-0.2427,-0.2508,-0.2525,-0.2557,-0.2558,-0.2555,-0.255,-0.2538,-0.2537,-0.254,-0.252,-0.2514,-0.255,-0.2454,-0.2466,-0.2461,-0.2481,-0.2475,-0.247,-0.2405,-0.2529,0,0,0,0,0,-0.2358,-0.2413,-0.2467,-0.2517,-0.2526,-0.2529,-0.2538,-0.2541,-0.256,-0.2554,-0.2555,-0.2528,-0.2496,-0.2497,-0.2475,-0.2468,-0.2382,-0.2417,-0.2412,-0.2408,-0.235,-0.2208,-0.2185,-0.2433,-0.2433,-0.2433,0,0,-0.2356,-0.2413,-0.2437,-0.2511,-0.251,-0.2522,-0.253,-0.2557,-0.2551,-0.256,-0.2546,-0.2526,-0.2489,-0.246,-0.2447,-0.2457,-0.2295,-0.2401,-0.2399,-0.2341,-0.2199,-0.2175,-0.2153,-0.2429,-0.2429,-0.243,0,0,-0.238,-0.2429,-0.2461,-0.2479,-0.2509,-0.2521,-0.2531,-0.2559,-0.2547,-0.2558,-0.2524,-0.2477,-0.2481,-0.2415,-0.2386,-0.2338,-0.2272,-0.233,-0.2266,-0.2131,-0.2109,-0.2089,-0.1968,-0.1936,-0.2332,-0.2332,-0.2332,0,-0.2348,-0.2418,-0.2471,-0.2493,-0.2498,-0.2519,-0.2521,-0.2524,-0.2553,-0.2532,-0.2554,-0.2444,-0.2431,-0.2328,-0.2301,-0.2322,-0.2245,-0.2309,-0.2125,-0.2103,-0.2081,-0.1962,-0.1927,-0.2332,-0.2332,-0.2332,-0.2332,0,-0.2386,-0.2416,-0.2439,-0.2464,-0.2479,-0.2499,-0.2516,-0.2514,-0.2509,-0.2499,-0.242,-0.2385,-0.2299,-0.2286,-0.2287,-0.2117,-0.2113,-0.2139,-0.2147,-0.2058,-0.1938,-0.1901,-0.2333,-0.2333,-0.2333,-0.2333,0,0,-0.2338,-0.2442,-0.2427,-0.2428,-0.2463,-0.2482,-0.2471,-0.2459,-0.2428,-0.2409,-0.2324,-0.2245,-0.2197,-0.2151,-0.212,-0.2007,-0.1812,-0.2009,-0.2002,-0.1899,-0.1511,-0.1548,-0.1512,-0.1822,-0.1815,-0.181,-0.1496,0,-0.2311,-0.2356,-0.2413,-0.2407,-0.2417,-0.2435,-0.2421,-0.2409,-0.2401,-0.2338,-0.2239,-0.2164,-0.2157,-0.2104,-0.1977,-0.1857,-0.1712,-0.1893,-0.1599,-0.1589,-0.1642,-0.1469,-0.1505,-0.1232,-0.146,-0.1454,-0.1449,0,-0.2222,-0.2325,-0.2325,-0.2374,-0.2373,-0.2354,-0.2318,-0.232,-0.2249,-0.2232,-0.2118,-0.2082,-0.1885,-0.1906,-0.1588,-0.1712,-0.1573,-0.1485,-0.1472,-0.1458,-0.1555,-0.1349,-0.1156,-0.1387,-0.1392,-0.1397,-0.1401,0,-0.207,-0.2177,-0.2187,-0.2207,-0.231,-0.2271,-0.2271,-0.2242,-0.2246,-0.2126,-0.2103,-0.1906,-0.1787,-0.1579,-0.1442,-0.1481,-0.1118,-0.1154,-0.104,-0.1043,-0.0981,-0.0991,-0.0868,-0.0868,-0.0869,-0.087,-0.0871,0,-0.1929,-0.1967,-0.2116,-0.2127,-0.2113,-0.2187,-0.2148,-0.2097,-0.2091,-0.2052,-0.2004,-0.1922,-0.1699,-0.1534,-0.137,-0.1099,-0.1045,-0.0945,-0.0931,-0.0995,-0.1008,-0.108,-0.1109,-0.0858,-0.0861,-0.0863,-0.0865,0,-0.1769,-0.1835,-0.1854,-0.1979,-0.2009,-0.1954,-0.205,-0.2078,-0.2058,-0.1985,-0.1944,-0.186,-0.163,-0.1467,-0.1133,-0.1012,-0.0769,-0.0696,-0.0805,-0.0808,-0.0782,-0.0815,-0.0435,-0.0432,-0.0431,-0.0429,-0.0428,0,-0.1749,-0.1753,-0.174,-0.1694,-0.1742,-0.179,-0.1856,-0.1951,-0.2004,-0.1954,-0.1897,-0.1728,-0.1573,-0.117,-0.094,-0.0625,-0.0686,-0.0506,-0.0557,-0.0695,-0.0719,-0.0756,-0.0791,-0.0477,-0.0476,-0.0475,-0.0475,0,-0.1803,-0.1694,-0.1685,-0.1594,-0.1576,-0.1675,-0.1756,-0.1799,-0.1917,-0.1871,-0.1746,-0.1619,-0.1304,-0.0992,-0.0704,-0.0565,-0.0563,-0.0482,-0.0521,-0.0631,-0.0722,-0.0754,-0.0787,-0.047,-0.047,-0.047,-0.0471,-0.0471,-0.1789,-0.1682,-0.1568,-0.1469,-0.1458,-0.1507,-0.1554,-0.1689,-0.1716,-0.1596,-0.1547,-0.1254,-0.1145,-0.0625,-0.0513,-0.0416,-0.0415,-0.0377,-0.0382,-0.0387,-0.0498,-0.0586,-0.0327,-0.0326,-0.0326,-0.0326,-0.0326,0,-0.176,-0.1614,-0.1531,-0.1357,-0.1387,-0.1372,-0.1502,-0.156,-0.1522,-0.1353,-0.1174,-0.0861,-0.0644,-0.0518,-0.0316,-0.0249,-0.0296,-0.0283,-0.0346,-0.0354,-0.036,-0.0473,-0.0291,-0.029,-0.0289,-0.0289,0,0,-0.1653,-0.1569,-0.1494,-0.1402,-0.129,-0.1311,-0.1312,-0.1284,-0.1202,-0.0952,-0.07,-0.056,-0.0482,-0.0323,-0.0345,-0.0264,-0.032,-0.0291,-0.0335,-0.0421,-0.0425,-0.0445,-0.0631,0,0,0,0,0]},{"header":{"parameterUnit":"m.s-1","parameterCategory":2,"la1":30.2991,"la2":30.254,"lo1":-89.0895,"lo2":-89.0444,"dy":0.0017,"dx":0.0017,"nx":28,"ny":28,"refTime":"2023-08-12T09:00:00:Z","depth":"2","parameterNumber":3,"parameterNumberName":"V-component_of_CURRENTS"},"data":[0,0,0,0,0,0,0,0,0,0,0,0,0,0,0,0,0,0,0,0,0,0,0,0,0,0,0,0,0,0,0,0,0,0,0,0,0,0,0,0,0,0,0,0,0,0,0,0,0,0,0,0,0,0,0,0,0,0,-0.012,-0.0119,0,-0.0028,-0.0027,-0.0026,0.0071,0.0073,0.0074,0.0075,0.0444,0.0453,0.0461,0,0,0,0,0,0,0,0,0,0,0,0,0,-0.0249,-0.0247,-0.012,-0.0119,-0.0118,-0.0028,-0.0027,-0.0026,0.0071,0.0073,0.0074,0.0076,0.0442,0.0452,0.0462,0,0,0,0,0,0,0,0,0,0,0,0,0,-0.0178,-0.0246,-0.012,-0.0059,-0.0052,-0.0029,-0.0027,-0.0025,0.0071,0.0073,0.0075,0.0077,0.0438,0.0451,0.0463,0.0503,0,0,0.0503,0.0508,0,0,0,0,0,0,0,0,-0.0182,-0.0174,-0.0069,-0.0063,-0.0056,0.0012,0.0062,0.0165,0.007,0.0025,0.0075,0.0078,0.0324,0.0346,0.0356,0.0521,0.0536,0.0504,0.0512,0.0517,0.0521,0,0,0,0,0,0,0,-0.0187,-0.0177,-0.0083,-0.0068,-0.006,-0.0049,-0.0037,0.0081,0.0168,0.0029,0.0036,0.0045,0.033,0.0343,0.0366,0.0542,0.0504,0.0515,0.0523,0.0528,0.0813,0.0813,0,0,0,0,0,0,-0.02,-0.0182,-0.0086,-0.008,-0.0116,-0.0049,-0.0034,-0.0011,0.0161,0.0186,0.0043,0.0049,0.032,0.0351,0.038,0.0492,0.0517,0.0529,0.0537,0.0813,0.0813,0.0813,0,0,0,0,0,0,-0.0203,-0.0192,-0.0089,-0.013,-0.0116,-0.0048,-0.0024,-0.0011,0.0026,0.0168,0.02,0.0069,0.0322,0.0362,0.0508,0.0506,0.0535,0.0547,0.0814,0.0813,0.0813,0.0683,0,0,0,0,0,0,-0.0207,-0.0193,-0.0178,-0.0131,-0.0115,-0.0062,-0.0025,-0.001,0.0027,0.0036,0.0201,0.0235,0.0327,0.0488,0.052,0.0524,0.0557,0.0814,0.0813,0.0813,0.0687,0.0678,0.067,0,0,0,0,0,-0.0211,-0.0197,-0.0178,-0.0166,-0.0097,-0.0062,-0.0053,0.0002,0.0026,0.0042,0.0158,0.0231,0.0508,0.0499,0.0537,0.0544,0.0814,0.0813,0.0813,0.0691,0.068,0.0671,0,0,0,0,0,0,-0.024,-0.0185,-0.0162,-0.013,-0.0095,-0.0045,-0.0029,0.0003,0.0097,0.0122,0.0253,0.0296,0.0413,0.0499,0.0485,0.0622,0.0664,0.0671,0.0558,0.0549,0.0541,0.0505,0.0568,0,0,0,0,0,-0.0245,-0.0222,-0.017,-0.0147,-0.013,-0.0081,-0.0059,-0.0022,0.0059,0.01,0.021,0.0329,0.0433,0.0509,0.0614,0.071,0.072,0.0731,0.0722,0.0714,0.071,0.0691,0.0679,0.0812,0.0812,0.0812,0,0,-0.0255,-0.022,-0.0208,-0.0154,-0.0123,-0.0098,-0.0062,-0.0027,0.0008,0.0133,0.0228,0.0315,0.0451,0.0544,0.0603,0.0626,0.068,0.0714,0.0706,0.0706,0.0689,0.0676,0.0664,0.0812,0.0812,0.0812,0,0,-0.0278,-0.0229,-0.0224,-0.0192,-0.0145,-0.0107,-0.0096,-0.0035,0.0011,0.0109,0.0186,0.0267,0.0452,0.0512,0.0577,0.0589,0.0632,0.0624,0.0566,0.0547,0.0535,0.0524,0.05,0.0488,0.0623,0.0623,0.0623,0,-0.0294,-0.0266,-0.0219,-0.0205,-0.0174,-0.0112,-0.0094,-0.0046,0.0056,0.0094,0.0139,0.0313,0.0429,0.0502,0.0505,0.0569,0.056,0.0591,0.053,0.0521,0.0512,0.049,0.0479,0.0617,0.0617,0.0618,0.0619,0,-0.0314,-0.0284,-0.0278,-0.0231,-0.0195,-0.0167,-0.0096,-0.0049,0.0019,0.0066,0.0152,0.0262,0.0359,0.0393,0.0473,0.0464,0.0475,0.0511,0.0543,0.049,0.0471,0.0462,0.0608,0.061,0.0612,0.0613,0,0,-0.0362,-0.0305,-0.0297,-0.0274,-0.0199,-0.0169,-0.0111,-0.0043,-0.0016,0.0068,0.009,0.0228,0.0247,0.0317,0.0378,0.0369,0.0303,0.0411,0.0413,0.0362,0.0242,0.0307,0.0304,0.0315,0.0313,0.0312,0.0244,0,-0.0388,-0.0361,-0.0322,-0.0285,-0.0256,-0.0183,-0.014,-0.0071,-0.0001,0.0035,0.0104,0.0163,0.0229,0.0255,0.025,0.0293,0.0276,0.0318,0.0324,0.0324,0.0368,0.0295,0.0353,0.0303,0.0235,0.0234,0.0233,0,-0.04,-0.0383,-0.0353,-0.0293,-0.0277,-0.0252,-0.017,-0.0125,-0.0061,-0.0019,0.0013,0.007,0.008,0.0136,0.0137,0.0154,0.0192,0.0214,0.0213,0.0316,0.0373,0.0354,0.0289,0.0217,0.0219,0.022,0.0221,0,-0.0432,-0.0385,-0.0357,-0.0336,-0.0277,-0.0255,-0.0215,-0.0142,-0.0103,-0.0075,-0.0062,-0.0044,-0.003,-0.0016,0.0052,0.0086,0.0033,0.0091,0.0177,0.0182,0.0258,0.0273,0.0083,0.0083,0.0083,0.0084,0.0084,0,-0.0456,-0.0443,-0.0372,-0.0375,-0.0342,-0.0286,-0.0256,-0.022,-0.0181,-0.0154,-0.0111,-0.0108,-0.0067,-0.0065,-0.0015,0.0034,-0.0022,0.0147,0.0164,0.0216,0.0228,0.0192,0.0206,0.0081,0.0082,0.0082,0.0083,0,-0.0515,-0.0466,-0.0433,-0.0377,-0.0362,-0.0333,-0.0279,-0.0262,-0.023,-0.0209,-0.0205,-0.0174,-0.0167,-0.0131,-0.0109,-0.0032,-0.0002,0.004,0.0096,0.0123,0.0176,0.0184,0.0121,0.0122,0.0124,0.0125,0.0126,0,-0.0555,-0.0542,-0.0449,-0.0427,-0.0415,-0.037,-0.0349,-0.0292,-0.0271,-0.0238,-0.0242,-0.0224,-0.0198,-0.0171,-0.0057,0.0008,0.0009,0.0128,0.0232,0.0154,0.0177,0.0183,0.0189,0.0264,0.0266,0.0267,0.0269,0,-0.0645,-0.0585,-0.0554,-0.0496,-0.0459,-0.0417,-0.0385,-0.0374,-0.031,-0.0288,-0.0279,-0.0264,-0.0189,-0.0066,0.0043,0.009,0.012,0.017,0.0036,0.0266,0.029,0.0313,0.0313,0.0283,0.0282,0.0281,0.028,0.0279,-0.0691,-0.0649,-0.0578,-0.0537,-0.0483,-0.0455,-0.0443,-0.0405,-0.0365,-0.0315,-0.0319,-0.0277,-0.0165,0.0016,0.0101,0.0223,0.0251,0.0322,0.0316,0.0308,0.0358,0.0385,0.0404,0.0403,0.0403,0.0402,0.0402,0,-0.0718,-0.0663,-0.0634,-0.0551,-0.054,-0.0485,-0.0449,-0.044,-0.0387,-0.0322,-0.029,-0.0237,-0.0074,0.0029,0.03,0.0426,0.038,0.0406,0.0382,0.0371,0.0361,0.041,0.0471,0.047,0.047,0.0469,0,0,-0.071,-0.0695,-0.0665,-0.063,-0.0572,-0.0511,-0.0479,-0.0459,-0.0403,-0.0333,-0.0259,-0.0252,-0.0062,0.0089,0.0263,0.0428,0.0338,0.0392,0.0349,0.0301,0.0287,0.0352,0.0423,0,0,0,0,0]}],[{"header":{"parameterUnit":"m.s-1","parameterCategory":2,"la1":30.2991,"la2":30.254,"lo1":-89.0895,"lo2":-89.0444,"dy":0.0017,"dx":0.0017,"nx":28,"ny":28,"refTime":"2023-08-12T09:00:00:Z","depth":"4","parameterNumber":2,"parameterNumberName":"U-component_of_CURRENTS"},"data":[0,0,0,0,0,0,0,0,0,0,0,0,0,0,0,0,0,0,0,0,0,0,0,0,0,0,0,0,0,0,0,0,0,0,0,0,0,0,0,0,0,0,0,0,0,0,0,0,0,0,0,0,0,0,0,0,0,0,-0.0978,-0.0979,0,-0.1028,-0.1028,-0.1029,-0.1058,-0.1058,-0.1058,-0.1058,-0.1142,-0.1144,-0.1146,0,0,0,0,0,0,0,0,0,0,0,0,0,-0.0941,-0.0942,-0.0978,-0.0979,-0.0979,-0.1028,-0.1028,-0.1029,-0.1058,-0.1058,-0.1058,-0.1058,-0.1141,-0.1144,-0.1146,0,0,0,0,0,0,0,0,0,0,0,0,0,-0.0972,-0.0942,-0.0978,-0.0998,-0.1,-0.1027,-0.1029,-0.103,-0.1058,-0.1058,-0.1058,-0.1058,-0.114,-0.1143,-0.1147,-0.117,0,0,-0.1157,-0.1159,0,0,0,0,0,0,0,0,-0.097,-0.0974,-0.0995,-0.0997,-0.0999,-0.1035,-0.1046,-0.1077,-0.1058,-0.1038,-0.1058,-0.1058,-0.1108,-0.1114,-0.1126,-0.1174,-0.1177,-0.1158,-0.116,-0.1161,-0.1162,0,0,0,0,0,0,0,-0.0968,-0.0972,-0.1,-0.0995,-0.0998,-0.1015,-0.1019,-0.1052,-0.1075,-0.104,-0.1042,-0.1044,-0.111,-0.1122,-0.1128,-0.1178,-0.1157,-0.116,-0.1163,-0.1164,-0.1293,-0.1295,0,0,0,0,0,0,-0.0957,-0.097,-0.0998,-0.1001,-0.0982,-0.1016,-0.1021,-0.1025,-0.1074,-0.1081,-0.1044,-0.1045,-0.1117,-0.1124,-0.1131,-0.1207,-0.1161,-0.1164,-0.1166,-0.1292,-0.1294,-0.1295,0,0,0,0,0,0,-0.0956,-0.0959,-0.0996,-0.0985,-0.0991,-0.1016,-0.1021,-0.1026,-0.1052,-0.1076,-0.1084,-0.1066,-0.1117,-0.1126,-0.1179,-0.1209,-0.1166,-0.1169,-0.129,-0.1293,-0.1294,-0.133,0,0,0,0,0,0,-0.0955,-0.0958,-0.0972,-0.0984,-0.0991,-0.101,-0.1021,-0.1027,-0.1052,-0.1055,-0.1098,-0.1105,-0.1118,-0.1174,-0.1183,-0.1213,-0.1172,-0.1289,-0.1291,-0.1294,-0.1327,-0.1333,-0.1338,0,0,0,0,0,-0.0953,-0.0965,-0.0973,-0.0977,-0.1004,-0.101,-0.1016,-0.1035,-0.1053,-0.106,-0.1104,-0.1104,-0.1196,-0.1179,-0.1188,-0.122,-0.1287,-0.1291,-0.1294,-0.1324,-0.1332,-0.1338,0,0,0,0,0,0,-0.0958,-0.0969,-0.0978,-0.0994,-0.1001,-0.1014,-0.1032,-0.1045,-0.1085,-0.1102,-0.1126,-0.1136,-0.1191,-0.1202,-0.1182,-0.1264,-0.1241,-0.1246,-0.1261,-0.1268,-0.1273,-0.124,-0.1174,0,0,0,0,0,-0.0965,-0.0975,-0.0984,-0.0997,-0.1005,-0.1024,-0.1036,-0.1048,-0.1076,-0.1095,-0.1122,-0.1164,-0.121,-0.1236,-0.1267,-0.1317,-0.1307,-0.1342,-0.1348,-0.1352,-0.1332,-0.1365,-0.1372,-0.1305,-0.1305,-0.1305,0,0,-0.0968,-0.0977,-0.0984,-0.0999,-0.1013,-0.1028,-0.1032,-0.1053,-0.1073,-0.1099,-0.1146,-0.1184,-0.1227,-0.1281,-0.1307,-0.1296,-0.1365,-0.1356,-0.136,-0.1337,-0.1369,-0.1376,-0.1381,-0.1308,-0.1307,-0.1307,0,0,-0.097,-0.0992,-0.0999,-0.1016,-0.1037,-0.1044,-0.1052,-0.1073,-0.1092,-0.1138,-0.117,-0.1224,-0.1282,-0.1319,-0.1348,-0.1404,-0.1392,-0.1419,-0.1426,-0.1459,-0.1464,-0.1469,-0.1457,-0.146,-0.1424,-0.1425,-0.1425,0,-0.0979,-0.0988,-0.1002,-0.1021,-0.1038,-0.1052,-0.1067,-0.109,-0.1126,-0.1144,-0.1156,-0.126,-0.1299,-0.1373,-0.1393,-0.1416,-0.1413,-0.1399,-0.1465,-0.1469,-0.1473,-0.146,-0.1463,-0.1427,-0.1426,-0.1426,-0.1426,0,-0.0985,-0.1005,-0.1015,-0.104,-0.1059,-0.1076,-0.1102,-0.1124,-0.1152,-0.1171,-0.124,-0.1299,-0.1355,-0.1388,-0.141,-0.1467,-0.1448,-0.1466,-0.1444,-0.1482,-0.1466,-0.1468,-0.143,-0.1429,-0.1428,-0.1428,0,0,-0.0975,-0.1008,-0.102,-0.1026,-0.1075,-0.1079,-0.1124,-0.1147,-0.1169,-0.1221,-0.1257,-0.1351,-0.1374,-0.1407,-0.1452,-0.1483,-0.1517,-0.1483,-0.1484,-0.1461,-0.1556,-0.1408,-0.1396,-0.155,-0.1551,-0.1552,-0.153,0,-0.0976,-0.0996,-0.1025,-0.1049,-0.1054,-0.1098,-0.113,-0.1165,-0.1195,-0.1231,-0.1302,-0.1354,-0.1387,-0.1425,-0.1466,-0.151,-0.1526,-0.1518,-0.153,-0.1528,-0.1385,-0.1395,-0.1555,-0.1532,-0.1532,-0.1533,-0.1533,0,-0.0981,-0.0984,-0.1009,-0.1032,-0.1044,-0.1069,-0.1111,-0.1143,-0.1204,-0.1235,-0.13,-0.1344,-0.1419,-0.1435,-0.1512,-0.1506,-0.1522,-0.1543,-0.1544,-0.1387,-0.1384,-0.1489,-0.1537,-0.1536,-0.1536,-0.1536,-0.1536,0,-0.0944,-0.0978,-0.0987,-0.1006,-0.1042,-0.1065,-0.1086,-0.1143,-0.1166,-0.1234,-0.1256,-0.1348,-0.1394,-0.1448,-0.15,-0.1511,-0.1552,-0.158,-0.1452,-0.1442,-0.1567,-0.1563,-0.1606,-0.1606,-0.1606,-0.1606,-0.1606,0,-0.0931,-0.0941,-0.097,-0.0974,-0.0984,-0.1032,-0.1056,-0.1091,-0.115,-0.1166,-0.1253,-0.1275,-0.1399,-0.1441,-0.1487,-0.146,-0.1548,-0.1428,-0.1424,-0.1582,-0.1579,-0.1568,-0.1564,-0.1605,-0.1605,-0.1606,-0.1606,0,-0.0904,-0.0928,-0.0934,-0.0962,-0.0965,-0.0982,-0.1022,-0.1031,-0.1096,-0.1122,-0.1145,-0.1228,-0.126,-0.1347,-0.1422,-0.1414,-0.1427,-0.1394,-0.152,-0.1528,-0.1293,-0.1291,-0.1238,-0.1232,-0.1227,-0.1224,-0.122,0,-0.0884,-0.0887,-0.0912,-0.0908,-0.0923,-0.0942,-0.0944,-0.1001,-0.1007,-0.1073,-0.1071,-0.1118,-0.1163,-0.1145,-0.1248,-0.1286,-0.1287,-0.1283,-0.1307,-0.1252,-0.1255,-0.1261,-0.1265,-0.1213,-0.1212,-0.1211,-0.1209,0,-0.084,-0.0874,-0.0879,-0.0868,-0.0868,-0.0855,-0.0858,-0.0852,-0.0912,-0.0978,-0.0961,-0.0978,-0.0988,-0.1044,-0.1068,-0.1112,-0.1288,-0.1235,-0.1245,-0.1268,-0.1222,-0.1231,-0.124,-0.1193,-0.1196,-0.1197,-0.1198,0,-0.0815,-0.0821,-0.0833,-0.0818,-0.0807,-0.0755,-0.0771,-0.0754,-0.0768,-0.084,-0.0827,-0.0885,-0.0955,-0.0948,-0.0985,-0.0994,-0.099,-0.0992,-0.1015,-0.1034,-0.0981,-0.0893,-0.0739,0,0,0,0,0,-0.0774,-0.0768,-0.0761,-0.073,-0.0715,-0.0697,-0.07,-0.0724,-0.0776,-0.0727,-0.0775,-0.0777,-0.079,-0.0828,-0.0799,-0.09,-0.1005,-0.0862,-0.1021,-0.1104,-0.1123,-0.1082,0,0,0,0,0,0,-0.0747,-0.0752,-0.0745,-0.065,-0.0606,-0.057,-0.0566,-0.0602,-0.0581,-0.0648,-0.0659,-0.0717,-0.0747,-0.079,-0.0778,-0.0791,-0.0871,-0.0905,-0.0903,-0.1094,-0.1111,-0.1126,-0.109,0,0,0,0,0]},{"header":{"parameterUnit":"m.s-1","parameterCategory":2,"la1":30.2991,"la2":30.254,"lo1":-89.0895,"lo2":-89.0444,"dy":0.0017,"dx":0.0017,"nx":28,"ny":28,"refTime":"2023-08-12T09:00:00:Z","depth":"4","parameterNumber":3,"parameterNumberName":"V-component_of_CURRENTS"},"data":[0,0,0,0,0,0,0,0,0,0,0,0,0,0,0,0,0,0,0,0,0,0,0,0,0,0,0,0,0,0,0,0,0,0,0,0,0,0,0,0,0,0,0,0,0,0,0,0,0,0,0,0,0,0,0,0,0,0,-0.0385,-0.0385,0,-0.0388,-0.0388,-0.0387,-0.0378,-0.0378,-0.0378,-0.0378,-0.0344,-0.0343,-0.0342,0,0,0,0,0,0,0,0,0,0,0,0,0,-0.0341,-0.0342,-0.0385,-0.0385,-0.0386,-0.0388,-0.0388,-0.0387,-0.0378,-0.0378,-0.0378,-0.0378,-0.0344,-0.0343,-0.0342,0,0,0,0,0,0,0,0,0,0,0,0,0,-0.0351,-0.0342,-0.0385,-0.0384,-0.0384,-0.0388,-0.0388,-0.0387,-0.0378,-0.0378,-0.0378,-0.0378,-0.0344,-0.0343,-0.0341,-0.0331,0,0,-0.0337,-0.0336,0,0,0,0,0,0,0,0,-0.035,-0.0352,-0.0384,-0.0384,-0.0384,-0.0386,-0.036,-0.0368,-0.0378,-0.0377,-0.0378,-0.0378,-0.0357,-0.0354,-0.035,-0.033,-0.0328,-0.0337,-0.0336,-0.0335,-0.0335,0,0,0,0,0,0,0,-0.035,-0.0352,-0.0382,-0.0384,-0.0384,-0.0374,-0.0375,-0.0361,-0.0363,-0.0377,-0.0377,-0.0383,-0.0356,-0.0351,-0.0349,-0.0328,-0.0337,-0.0336,-0.0335,-0.0334,-0.0312,-0.0312,0,0,0,0,0,0,-0.0358,-0.0351,-0.0382,-0.0383,-0.0371,-0.0375,-0.0376,-0.0382,-0.0364,-0.0362,-0.0383,-0.0383,-0.0354,-0.0351,-0.0348,-0.0359,-0.0335,-0.0334,-0.0333,-0.0311,-0.0312,-0.0312,0,0,0,0,0,0,-0.0357,-0.0361,-0.0382,-0.037,-0.0372,-0.0376,-0.0383,-0.0382,-0.039,-0.0369,-0.0367,-0.0393,-0.0354,-0.035,-0.0347,-0.0357,-0.0333,-0.0332,-0.0311,-0.0312,-0.0312,-0.0366,0,0,0,0,0,0,-0.0356,-0.036,-0.0374,-0.037,-0.0373,-0.0395,-0.0383,-0.0383,-0.0395,-0.0394,-0.0377,-0.0373,-0.0354,-0.035,-0.0346,-0.0354,-0.0331,-0.0311,-0.0311,-0.0312,-0.0364,-0.0368,-0.0372,0,0,0,0,0,-0.0354,-0.037,-0.0375,-0.0379,-0.0391,-0.0396,-0.0396,-0.0396,-0.0395,-0.0402,-0.0391,-0.0374,-0.035,-0.0349,-0.0344,-0.0353,-0.0311,-0.0311,-0.0312,-0.0362,-0.0367,-0.0372,0,0,0,0,0,0,-0.0357,-0.037,-0.0376,-0.0395,-0.0402,-0.0396,-0.0403,-0.0405,-0.0402,-0.04,-0.038,-0.0376,-0.0374,-0.0357,-0.0356,-0.0346,-0.0326,-0.0326,-0.0366,-0.0371,-0.0375,-0.0381,-0.033,0,0,0,0,0,-0.0366,-0.0382,-0.039,-0.0407,-0.0409,-0.0409,-0.0414,-0.0415,-0.041,-0.041,-0.0402,-0.0386,-0.0371,-0.0367,-0.035,-0.035,-0.0314,-0.035,-0.0354,-0.0358,-0.0359,-0.0294,-0.0291,-0.0314,-0.0314,-0.0314,0,0,-0.0373,-0.0383,-0.0392,-0.0409,-0.0409,-0.0426,-0.0411,-0.042,-0.0437,-0.0405,-0.0423,-0.0401,-0.0373,-0.037,-0.0367,-0.0359,-0.0339,-0.0358,-0.0362,-0.0361,-0.0294,-0.0291,-0.0289,-0.0314,-0.0314,-0.0314,0,0,-0.0386,-0.0399,-0.0414,-0.0428,-0.044,-0.0441,-0.045,-0.0453,-0.0455,-0.0468,-0.0444,-0.0429,-0.0421,-0.0397,-0.0384,-0.0399,-0.0359,-0.0397,-0.0427,-0.0364,-0.0361,-0.0358,-0.0337,-0.0332,-0.0402,-0.0403,-0.0403,0,-0.0397,-0.0418,-0.042,-0.0441,-0.046,-0.0453,-0.0477,-0.0479,-0.0486,-0.0487,-0.0482,-0.0453,-0.043,-0.0414,-0.042,-0.0408,-0.0378,-0.0413,-0.0368,-0.0365,-0.0361,-0.0339,-0.0333,-0.0405,-0.0405,-0.0405,-0.0404,0,-0.0419,-0.0445,-0.0452,-0.0482,-0.0503,-0.0518,-0.0529,-0.0541,-0.0544,-0.0543,-0.0533,-0.0497,-0.0478,-0.0468,-0.0452,-0.042,-0.0412,-0.0378,-0.0357,-0.0362,-0.0339,-0.0332,-0.0409,-0.0408,-0.0407,-0.0407,0,0,-0.0426,-0.0461,-0.0469,-0.049,-0.0527,-0.0542,-0.0572,-0.0588,-0.0601,-0.0593,-0.0596,-0.0565,-0.054,-0.0522,-0.049,-0.0441,-0.0398,-0.0408,-0.0403,-0.039,-0.0287,-0.0249,-0.0237,-0.0351,-0.035,-0.0348,-0.0292,0,-0.0444,-0.0482,-0.0506,-0.0556,-0.0576,-0.0597,-0.0628,-0.0645,-0.0648,-0.0648,-0.06,-0.0586,-0.0562,-0.0547,-0.0497,-0.0413,-0.0376,-0.0418,-0.0282,-0.0279,-0.0245,-0.0225,-0.0343,-0.0286,-0.0284,-0.0283,-0.0282,0,-0.0471,-0.0489,-0.0537,-0.0588,-0.06,-0.0638,-0.0681,-0.0704,-0.0702,-0.0699,-0.0676,-0.0641,-0.0584,-0.055,-0.0424,-0.0452,-0.0383,-0.0318,-0.0313,-0.025,-0.0225,-0.0272,-0.0267,-0.0269,-0.027,-0.0271,-0.0272,0,-0.0477,-0.0521,-0.0558,-0.058,-0.0632,-0.0664,-0.069,-0.0719,-0.0733,-0.0722,-0.0718,-0.0658,-0.0607,-0.0512,-0.0394,-0.0405,-0.0241,-0.0235,-0.0144,-0.0143,-0.0172,-0.0175,-0.0142,-0.0142,-0.0142,-0.0143,-0.0143,0,-0.0503,-0.0531,-0.0562,-0.059,-0.0638,-0.0672,-0.0722,-0.0743,-0.0754,-0.0761,-0.0735,-0.0708,-0.0586,-0.0487,-0.0395,-0.0241,-0.024,-0.0145,-0.0112,-0.0202,-0.0208,-0.0168,-0.0172,-0.014,-0.0141,-0.0141,-0.0142,0,-0.0519,-0.0539,-0.0581,-0.0629,-0.0651,-0.0686,-0.0746,-0.0768,-0.0779,-0.0783,-0.0776,-0.0718,-0.0591,-0.0473,-0.0301,-0.0227,-0.0094,-0.0043,-0.0169,-0.0145,-0.0053,-0.006,0.0046,0.0048,0.005,0.0051,0.0052,0,-0.0525,-0.055,-0.0611,-0.0642,-0.0671,-0.0718,-0.0757,-0.0785,-0.0799,-0.0784,-0.0772,-0.0668,-0.0614,-0.0358,-0.0235,-0.006,-0.0029,0.0019,-0.0004,-0.0048,-0.0027,-0.0037,-0.0047,0.0055,0.0056,0.0056,0.0057,0,-0.0535,-0.0565,-0.0597,-0.066,-0.0709,-0.0753,-0.0795,-0.08,-0.0815,-0.0821,-0.0749,-0.0643,-0.0494,-0.0333,-0.0182,-0.006,-0.0022,0.0038,0.0034,0.0012,-0.0035,-0.0018,-0.003,0.0063,0.0062,0.0061,0.0061,0,-0.0538,-0.0558,-0.0611,-0.0664,-0.0724,-0.0765,-0.079,-0.0787,-0.0793,-0.0768,-0.0736,-0.0609,-0.0533,-0.0331,-0.0196,-0.0062,-0.0043,-0.0018,-0.0018,-0.0024,-0.0053,-0.0124,-0.0017,0,0,0,0,0,-0.0537,-0.0561,-0.0611,-0.067,-0.0731,-0.0768,-0.0807,-0.0818,-0.0819,-0.0765,-0.075,-0.0619,-0.0415,-0.0333,-0.019,-0.0169,-0.0024,0.0001,0.0004,0.0097,0.009,0.0073,0,0,0,0,0,0,-0.0538,-0.0578,-0.06,-0.0663,-0.0705,-0.0766,-0.0789,-0.0794,-0.0756,-0.0742,-0.063,-0.0588,-0.0385,-0.0492,-0.0188,-0.0151,-0.013,0.009,0.0093,0.0101,0.0095,0.0089,0.0069,0,0,0,0,0]}]]